SAS292 ENBR-ENGM

Flight info

Callsign SAS292
Flight time 0h 46m
Altitude 31000
Route GOKAB DCT ULVAN DCT ADOPI
Aircraft A319/M-SDE3FGIJ1RWXY/LB1

Departure

Time 2026-05-06 17:58
Airport Bergen Airport, Flesland (ENBR)

Arrival

Time 2026-05-06 18:44
Airport Oslo-Gardermoen International Airport (ENGM)
Time Latitude Longitude Altitude Speed Heading
2026-05-06 17:18 60.28820 5.22885 173 ft 0 kts 80°
2026-05-06 17:25 60.28820 5.22884 173 ft 0 kts 80°
2026-05-06 17:51 60.28818 5.22855 173 ft 4 kts 80°
2026-05-06 17:51 60.28814 5.22809 173 ft 1 kts 80°
2026-05-06 17:53 60.28811 5.22814 173 ft 1 kts 116°
2026-05-06 17:53 60.28792 5.22795 173 ft 6 kts 216°
2026-05-06 17:53 60.28740 5.22729 172 ft 10 kts 212°
2026-05-06 17:53 60.28712 5.22568 167 ft 13 kts 260°
2026-05-06 17:54 60.28685 5.22420 165 ft 12 kts 256°
2026-05-06 17:54 60.28763 5.22332 163 ft 18 kts 351°
2026-05-06 17:54 60.28903 5.22285 162 ft 23 kts 351°
2026-05-06 17:54 60.29063 5.22232 163 ft 23 kts 351°
2026-05-06 17:55 60.29230 5.22175 163 ft 24 kts 351°
2026-05-06 17:55 60.29382 5.22125 159 ft 22 kts 350°
2026-05-06 17:55 60.29567 5.22062 151 ft 31 kts 351°
2026-05-06 17:55 60.29767 5.21995 148 ft 29 kts 350°
2026-05-06 17:56 60.29957 5.21931 156 ft 26 kts 351°
2026-05-06 17:56 60.30121 5.21877 164 ft 24 kts 350°
2026-05-06 17:56 60.30299 5.21816 168 ft 25 kts 350°
2026-05-06 17:56 60.30429 5.21771 173 ft 13 kts 347°
2026-05-06 17:57 60.30433 5.21593 172 ft 17 kts 251°
2026-05-06 17:57 60.30386 5.21467 169 ft 7 kts 183°
2026-05-06 17:57 60.30287 5.21498 165 ft 36 kts 170°
2026-05-06 17:57 60.29781 5.21667 155 ft 108 kts 170°
2026-05-06 17:58 60.28855 5.21972 326 ft 146 kts 174°
2026-05-06 17:58 60.27879 5.22306 1084 ft 142 kts 173°
2026-05-06 17:58 60.26893 5.22634 1642 ft 150 kts 173°
2026-05-06 17:58 60.25781 5.23000 2005 ft 173 kts 173°
2026-05-06 17:59 60.24511 5.23418 2429 ft 198 kts 173°
2026-05-06 17:59 60.23063 5.23895 2925 ft 223 kts 173°
2026-05-06 17:59 60.21441 5.24427 3543 ft 248 kts 173°
2026-05-06 17:59 60.19670 5.25007 4397 ft 264 kts 173°
2026-05-06 18:00 60.17844 5.25613 5514 ft 268 kts 173°
2026-05-06 18:00 60.15991 5.26234 6644 ft 272 kts 173°
2026-05-06 18:00 60.14109 5.26869 7701 ft 276 kts 172°
2026-05-06 18:00 60.12274 5.28140 8696 ft 286 kts 150°
2026-05-06 18:01 60.10825 5.30934 9705 ft 295 kts 123°
2026-05-06 18:01 60.10113 5.34783 10641 ft 300 kts 96°
2026-05-06 18:01 60.10297 5.38927 11538 ft 302 kts 70°
2026-05-06 18:01 60.11251 5.42650 12434 ft 302 kts 48°
2026-05-06 18:02 60.12790 5.45373 13510 ft 292 kts 26°
2026-05-06 18:02 60.14653 5.46818 14419 ft 286 kts
2026-05-06 18:02 60.16610 5.46874 15219 ft 279 kts 343°
2026-05-06 18:02 60.18447 5.45735 16036 ft 277 kts 333°
2026-05-06 18:03 60.20347 5.44736 16680 ft 288 kts 342°
2026-05-06 18:03 60.22352 5.44277 17007 ft 292 kts 345°
2026-05-06 18:03 60.24369 5.43872 17052 ft 291 kts 345°
2026-05-06 18:03 60.26400 5.43574 17067 ft 296 kts 351°
2026-05-06 18:04 60.28477 5.44056 17055 ft 306 kts
2026-05-06 18:04 60.30521 5.45487 17051 ft 317 kts 17°
2026-05-06 18:04 60.32394 5.47848 17054 ft 328 kts 31°
2026-05-06 18:04 60.34028 5.51180 17233 ft 342 kts 47°
2026-05-06 18:05 60.35402 5.55144 18077 ft 347 kts 48°
2026-05-06 18:05 60.36798 5.59153 18881 ft 348 kts 47°
2026-05-06 18:05 60.38206 5.63157 19616 ft 351 kts 46°
2026-05-06 18:05 60.39657 5.67154 20272 ft 355 kts 45°
2026-05-06 18:06 60.41150 5.71177 20917 ft 359 kts 45°
2026-05-06 18:06 60.42664 5.75241 21545 ft 364 kts 45°
2026-05-06 18:06 60.44201 5.79367 22225 ft 369 kts 45°
2026-05-06 18:06 60.45757 5.83542 22868 ft 374 kts 45°
2026-05-06 18:07 60.47333 5.87772 23506 ft 378 kts 45°
2026-05-06 18:07 60.48929 5.92045 24017 ft 383 kts 45°
2026-05-06 18:07 60.50555 5.96378 24567 ft 387 kts 45°
2026-05-06 18:07 60.52196 6.00726 25099 ft 390 kts 45°
2026-05-06 18:08 60.53863 6.05103 25658 ft 393 kts 45°
2026-05-06 18:08 60.55548 6.09488 26218 ft 396 kts 45°
2026-05-06 18:08 60.57258 6.13900 26735 ft 399 kts 45°
2026-05-06 18:08 60.58941 6.18437 27252 ft 406 kts 54°
2026-05-06 18:09 60.60063 6.23765 27767 ft 416 kts 76°
2026-05-06 18:09 60.60321 6.29616 28292 ft 416 kts 98°
2026-05-06 18:09 60.59904 6.35429 28792 ft 416 kts 103°
2026-05-06 18:09 60.59431 6.41259 29330 ft 419 kts 103°
2026-05-06 18:10 60.58951 6.47121 29863 ft 422 kts 103°
2026-05-06 18:10 60.58470 6.53038 30348 ft 424 kts 103°
2026-05-06 18:10 60.57990 6.58970 30795 ft 426 kts 103°
2026-05-06 18:10 60.57510 6.64922 30977 ft 427 kts 103°
2026-05-06 18:11 60.56553 6.76810 31019 ft 425 kts 103°
2026-05-06 18:11 60.55588 6.88680 31018 ft 426 kts 104°
2026-05-06 18:12 60.54594 7.00550 31020 ft 426 kts 104°
2026-05-06 18:12 60.53595 7.12336 31020 ft 426 kts 104°
2026-05-06 18:13 60.52579 7.24183 31021 ft 426 kts 104°
2026-05-06 18:13 60.51555 7.36029 31021 ft 426 kts 104°
2026-05-06 18:14 60.50515 7.47931 30995 ft 425 kts 105°
2026-05-06 18:14 60.49483 7.59669 30991 ft 426 kts 105°
2026-05-06 18:15 60.48425 7.71491 30994 ft 426 kts 105°
2026-05-06 18:15 60.47354 7.83301 30996 ft 426 kts 105°
2026-05-06 18:16 60.46254 7.95277 30790 ft 444 kts 105°
2026-05-06 18:16 60.45684 8.01462 30553 ft 449 kts 105°
2026-05-06 18:16 60.45114 8.07710 30309 ft 452 kts 105°
2026-05-06 18:17 60.44539 8.13977 29983 ft 451 kts 107°
2026-05-06 18:17 60.43964 8.20218 29474 ft 451 kts 107°
2026-05-06 18:17 60.43389 8.26448 28974 ft 450 kts 107°
2026-05-06 18:17 60.42809 8.32652 28459 ft 449 kts 107°
2026-05-06 18:18 60.42220 8.38868 27922 ft 449 kts 106°
2026-05-06 18:18 60.41627 8.45075 27391 ft 449 kts 106°
2026-05-06 18:18 60.41032 8.51278 26852 ft 450 kts 106°
2026-05-06 18:18 60.40436 8.57484 26322 ft 449 kts 106°
2026-05-06 18:19 60.39837 8.63690 25822 ft 449 kts 106°
2026-05-06 18:19 60.39234 8.69873 25316 ft 448 kts 106°
2026-05-06 18:19 60.38627 8.76054 24821 ft 448 kts 106°
2026-05-06 18:19 60.38018 8.82224 24339 ft 447 kts 106°
2026-05-06 18:20 60.37411 8.88361 23841 ft 445 kts 105°
2026-05-06 18:20 60.36802 8.94493 23292 ft 445 kts 105°
2026-05-06 18:20 60.36193 9.00601 22759 ft 442 kts 105°
2026-05-06 18:20 60.35589 9.06662 22248 ft 439 kts 105°
2026-05-06 18:21 60.34984 9.12701 21705 ft 436 kts 105°
2026-05-06 18:21 60.34381 9.18677 21160 ft 433 kts 105°
2026-05-06 18:21 60.33778 9.24610 20599 ft 428 kts 105°
2026-05-06 18:21 60.33188 9.30413 20168 ft 414 kts 105°
2026-05-06 18:22 60.32808 9.35972 19881 ft 400 kts 95°
2026-05-06 18:22 60.32940 9.41520 19525 ft 394 kts 82°
2026-05-06 18:22 60.33548 9.46875 19143 ft 390 kts 73°
2026-05-06 18:22 60.34279 9.52148 18634 ft 388 kts 73°
2026-05-06 18:23 60.34996 9.57363 18048 ft 384 kts 74°
2026-05-06 18:23 60.35700 9.62522 17484 ft 378 kts 74°
2026-05-06 18:23 60.36390 9.67603 16968 ft 372 kts 74°
2026-05-06 18:23 60.37067 9.72596 16455 ft 366 kts 74°
2026-05-06 18:24 60.37730 9.77516 15954 ft 360 kts 74°
2026-05-06 18:24 60.38377 9.82355 15448 ft 354 kts 75°
2026-05-06 18:24 60.39013 9.87125 15020 ft 348 kts 75°
2026-05-06 18:24 60.39635 9.91784 14630 ft 339 kts 75°
2026-05-06 18:25 60.40245 9.96336 14181 ft 332 kts 75°
2026-05-06 18:25 60.40844 10.00798 13688 ft 325 kts 75°
2026-05-06 18:25 60.41427 10.05166 13157 ft 319 kts 75°
2026-05-06 18:25 60.41998 10.09459 12571 ft 314 kts 75°
2026-05-06 18:26 60.42558 10.13692 12122 ft 309 kts 75°
2026-05-06 18:26 60.43111 10.17874 11701 ft 308 kts 76°
2026-05-06 18:26 60.43665 10.22068 11284 ft 308 kts 76°
2026-05-06 18:26 60.44213 10.26240 10870 ft 306 kts 76°
2026-05-06 18:27 60.44759 10.30393 10455 ft 304 kts 76°
2026-05-06 18:27 60.45299 10.34511 10143 ft 299 kts 76°
2026-05-06 18:27 60.45847 10.38464 10008 ft 283 kts 70°
2026-05-06 18:27 60.46819 10.41782 9915 ft 267 kts 47°
2026-05-06 18:28 60.48229 10.44135 9925 ft 262 kts 27°
2026-05-06 18:28 60.49901 10.45396 9929 ft 259 kts
2026-05-06 18:28 60.51678 10.46006 9928 ft 259 kts
2026-05-06 18:28 60.53453 10.46616 9928 ft 259 kts
2026-05-06 18:29 60.55232 10.47233 9931 ft 259 kts
2026-05-06 18:29 60.56997 10.47963 9926 ft 260 kts 15°
2026-05-06 18:29 60.58643 10.49512 9932 ft 262 kts 29°
2026-05-06 18:29 60.60218 10.51368 9928 ft 262 kts 28°
2026-05-06 18:30 60.61799 10.53212 9929 ft 262 kts 28°
2026-05-06 18:30 60.63383 10.55051 9939 ft 262 kts 28°
2026-05-06 18:30 60.64960 10.56878 9932 ft 260 kts 28°
2026-05-06 18:30 60.66507 10.58778 9928 ft 260 kts 36°
2026-05-06 18:31 60.67814 10.61326 9934 ft 261 kts 49°
2026-05-06 18:31 60.68986 10.64152 9932 ft 261 kts 49°
2026-05-06 18:31 60.69755 10.66127 9936 ft 279 kts 56°
2026-05-06 18:31 60.70417 10.69813 9912 ft 270 kts 86°
2026-05-06 18:32 60.70256 10.73524 9922 ft 261 kts 103°
2026-05-06 18:32 60.69874 10.77111 9829 ft 257 kts 105°
2026-05-06 18:32 60.69470 10.80662 9539 ft 256 kts 105°
2026-05-06 18:32 60.69062 10.84186 9236 ft 255 kts 105°
2026-05-06 18:33 60.68649 10.87699 8963 ft 254 kts 105°
2026-05-06 18:33 60.68234 10.91187 8685 ft 253 kts 105°
2026-05-06 18:33 60.67816 10.94660 8396 ft 251 kts 105°
2026-05-06 18:33 60.67398 10.98119 8089 ft 251 kts 105°
2026-05-06 18:34 60.66983 11.01570 7796 ft 250 kts 105°
2026-05-06 18:34 60.66565 11.05008 7502 ft 249 kts 105°
2026-05-06 18:34 60.66147 11.08425 7213 ft 248 kts 105°
2026-05-06 18:34 60.65725 11.11834 6922 ft 247 kts 105°
2026-05-06 18:35 60.65303 11.15217 6630 ft 246 kts 105°
2026-05-06 18:35 60.64879 11.18587 6357 ft 245 kts 105°
2026-05-06 18:35 60.64452 11.21940 6057 ft 244 kts 105°
2026-05-06 18:35 60.64026 11.25273 5750 ft 243 kts 105°
2026-05-06 18:36 60.63394 11.28415 5434 ft 239 kts 129°
2026-05-06 18:36 60.62111 11.30438 5125 ft 233 kts 162°
2026-05-06 18:36 60.60526 11.30849 5007 ft 230 kts 183°
2026-05-06 18:36 60.58957 11.30316 5013 ft 230 kts 198°
2026-05-06 18:37 60.57413 11.29463 5014 ft 230 kts 196°
2026-05-06 18:37 60.55826 11.28935 5008 ft 231 kts 192°
2026-05-06 18:37 60.54258 11.28221 5013 ft 231 kts 197°
2026-05-06 18:37 60.52712 11.27334 5017 ft 231 kts 198°
2026-05-06 18:38 60.51167 11.26418 5023 ft 231 kts 198°
2026-05-06 18:38 60.49643 11.25519 5012 ft 231 kts 198°
2026-05-06 18:38 60.48081 11.24600 5012 ft 231 kts 198°
2026-05-06 18:38 60.46554 11.23703 5012 ft 231 kts 198°
2026-05-06 18:39 60.45071 11.22835 5000 ft 213 kts 198°
2026-05-06 18:39 60.43710 11.22038 5036 ft 194 kts 198°
2026-05-06 18:39 60.42428 11.21286 4967 ft 190 kts 198°
2026-05-06 18:40 60.39905 11.19807 4527 ft 188 kts 198°
2026-05-06 18:40 60.38652 11.19074 4266 ft 187 kts 198°
2026-05-06 18:40 60.37404 11.18346 4008 ft 186 kts 198°
2026-05-06 18:40 60.36162 11.17621 3747 ft 186 kts 198°
2026-05-06 18:41 60.34917 11.16895 3497 ft 186 kts 198°
2026-05-06 18:41 60.33680 11.16174 3242 ft 185 kts 198°
2026-05-06 18:41 60.32449 11.15457 2983 ft 184 kts 198°
2026-05-06 18:41 60.31218 11.14741 2733 ft 183 kts 198°
2026-05-06 18:42 60.30041 11.14059 2482 ft 171 kts 198°
2026-05-06 18:42 60.28922 11.13409 2253 ft 165 kts 198°
2026-05-06 18:42 60.27824 11.12770 2019 ft 163 kts 198°
2026-05-06 18:42 60.26764 11.12157 1800 ft 153 kts 198°
2026-05-06 18:43 60.25776 11.11584 1593 ft 144 kts 198°
2026-05-06 18:43 60.24824 11.11031 1387 ft 142 kts 198°
2026-05-06 18:43 60.23882 11.10479 1210 ft 141 kts 198°
2026-05-06 18:43 60.22938 11.09928 1002 ft 141 kts 198°
2026-05-06 18:44 60.21992 11.09389 784 ft 141 kts 197°
2026-05-06 18:44 60.21065 11.08851 683 ft 129 kts 196°
2026-05-06 18:44 60.20342 11.08437 677 ft 85 kts 196°
2026-05-06 18:44 60.20024 11.08298 676 ft 29 kts 180°
2026-05-06 18:45 60.19908 11.08380 675 ft 15 kts 130°
2026-05-06 18:45 60.19872 11.08586 678 ft 16 kts 105°
2026-05-06 18:45 60.19838 11.08823 676 ft 20 kts 106°
2026-05-06 18:45 60.19801 11.09083 683 ft 19 kts 106°
2026-05-06 18:46 60.19762 11.09355 680 ft 21 kts 105°
2026-05-06 18:46 60.19730 11.09578 683 ft 15 kts 107°
2026-05-06 18:46 60.19703 11.09754 683 ft 10 kts 108°
2026-05-06 18:46 60.19682 11.09893 685 ft 10 kts 105°
2026-05-06 18:47 60.19671 11.09973 685 ft 2 kts 106°
2026-05-06 18:47 60.19669 11.09982 685 ft 0 kts 106°